This is the latest recevied weather packets stored in our database for station/object NO9B. If no packets are shown the sender has not sent any weather packets the latest 10 day(s).
| Time | Temp. | Humidity | Pressure | Rain* | Wind** | Luminosity | Snow |
|---|---|---|---|---|---|---|---|
| 1788469368 | 28.33° C | 81% | 1014.6 hPa | 0 mm | - | 213 W/m² | - |
| 1788469068 | 28.33° C | 83% | 1014.6 hPa | 0 mm | - | 321 W/m² | - |
| 1788468767 | 27.78° C | 85% | 1014.9 hPa | 0 mm | - | 337 W/m² | - |
| 1788468463 | 27.78° C | 85% | 1014.9 hPa | 0 mm | - | 276 W/m² | - |
| 1788468159 | 27.22° C | 89% | 1014.9 hPa | 0 mm | - | 164 W/m² | - |
| 1788467854 | 26.67° C | 90% | 1015 hPa | 0 mm | - | 258 W/m² | - |
| 1788467550 | 26.67° C | 91% | 1015 hPa | 0 mm | - | 112 W/m² | - |
| 1788467243 | 26.67° C | 92% | 1015 hPa | 0 mm | - | 117 W/m² | - |
| 1788466940 | 26.11° C | 93% | 1014.8 hPa | 0 mm | - | 79 W/m² | - |
| 1788466639 | 26.11° C | 92% | 1014.7 hPa | 0 mm | - | 70 W/m² | - |
| 1788466335 | 26.11° C | 91% | 1014.8 hPa | 0 mm | - | 69 W/m² | - |
| 1788466034 | 26.11° C | 93% | 1014.5 hPa | 0 mm | - | 45 W/m² | - |
| 1788465729 | 26.11° C | 92% | 1014.5 hPa | 0 mm | - | 53 W/m² | - |
| 1788465425 | 26.11° C | 91% | 1014.5 hPa | 0 mm | - | 47 W/m² | - |
| 1788465121 | 26.11° C | 90% | 1014.4 hPa | 0 mm | - | 55 W/m² | - |
| 1788464820 | 26.11° C | 89% | 1014.5 hPa | 0 mm | - | 61 W/m² | - |
| 1788464516 | 26.11° C | 88% | 1014.5 hPa | 0 mm | - | 96 W/m² | - |
| 1788464211 | 26.11° C | 90% | 1014.6 hPa | 0 mm | - | 63 W/m² | - |
| 1788463912 | 26.11° C | 92% | 1014.7 hPa | 0 mm | - | 59 W/m² | - |
| 1788463608 | 26.11° C | 93% | 1014.9 hPa | 0 mm | - | 68 W/m² | - |
| 1788463308 | 26.11° C | 92% | 1014.6 hPa | 0.51 mm | - | 75 W/m² | - |
| 1788463005 | 26.11° C | 92% | 1015 hPa | 0 mm | - | 58 W/m² | - |
| 1788462705 | 26.11° C | 92% | 1015.1 hPa | 0 mm | - | 81 W/m² | - |
| 1788462405 | 26.11° C | 92% | 1015.1 hPa | 0 mm | - | 106 W/m² | - |
| 1788462099 | 26.11° C | 91% | 1015 hPa | 0 mm | - | 109 W/m² | - |
* Rain latest hour (hover to see other rain measurements)
** Current wind speed in m/s (hover to see current wind gust speed)